This is the latest recevied weather packets stored in our database for station/object W7TJC. If no packets are shown the sender has not sent any weather packets the latest 10 day(s).
| Time | Temp. | Humidity | Pressure | Rain* | Wind** | Luminosity | Snow |
|---|---|---|---|---|---|---|---|
| 1777672229 | 25° C | 44% | 1016.4 hPa | 0 mm | - | 437 W/m² | - |
| 1777671925 | 25° C | 45% | 1016.3 hPa | 0 mm | - | 471 W/m² | - |
| 1777671621 | 24.44° C | 46% | 1016.4 hPa | 0 mm | - | 471 W/m² | - |
| 1777671318 | 24.44° C | 47% | 1016.3 hPa | 0 mm | - | 414 W/m² | - |
| 1777671014 | 23.89° C | 46% | 1016.6 hPa | 0 mm | - | 439 W/m² | - |
| 1777670710 | 24.44° C | 45% | 1016.6 hPa | 0 mm | - | 572 W/m² | - |
| 1777670408 | 23.89° C | 50% | 1016.6 hPa | 0 mm | - | 651 W/m² | - |
| 1777670104 | 22.78° C | 51% | 1016.5 hPa | 0 mm | - | 319 W/m² | - |
| 1777669802 | 22.78° C | 53% | 1016.6 hPa | 0 mm | - | 191 W/m² | - |
| 1777669498 | 22.22° C | 50% | 1016.8 hPa | 0 mm | - | 217 W/m² | - |
| 1777669195 | 22.22° C | 53% | 1016.8 hPa | 0 mm | - | 259 W/m² | - |
| 1777668892 | 22.22° C | 52% | 1016.8 hPa | 0 mm | - | 168 W/m² | - |
| 1777668590 | 22.78° C | 51% | 1016.8 hPa | 0 mm | - | 161 W/m² | - |
| 1777668285 | 22.78° C | 52% | 1016.8 hPa | 0 mm | - | 227 W/m² | - |
| 1777667981 | 22.78° C | 52% | 1016.8 hPa | 0 mm | - | 425 W/m² | - |
| 1777667678 | 21.67° C | 51% | 1016.8 hPa | 0 mm | - | 355 W/m² | - |
| 1777667376 | 21.67° C | 53% | 1016.8 hPa | 0 mm | - | 210 W/m² | - |
| 1777667073 | 21.11° C | 52% | 1016.7 hPa | 0 mm | - | 279 W/m² | - |
| 1777666769 | 21.11° C | 54% | 1017.1 hPa | 0 mm | - | 200 W/m² | - |
| 1777666466 | 21.67° C | 50% | 1017 hPa | 0 mm | - | 307 W/m² | - |
| 1777666163 | 21.67° C | 49% | 1016.9 hPa | 0 mm | - | 542 W/m² | - |
| 1777665860 | 21.67° C | 51% | 1017 hPa | 0 mm | - | 596 W/m² | - |
| 1777665558 | 21.11° C | 52% | 1017.2 hPa | 0 mm | - | 529 W/m² | - |
| 1777665254 | 21.11° C | 49% | 1017.3 hPa | 0 mm | - | 228 W/m² | - |
| 1777664950 | 21.11° C | 52% | 1017.3 hPa | 0 mm | - | 200 W/m² | - |
* Rain latest hour (hover to see other rain measurements)
** Current wind speed in m/s (hover to see current wind gust speed)